Time,TemperatureF,DewpointF,PressureIn,WindDirection,WindDirectionDegrees,WindSpeedMPH,WindSpeedGustMPH,Humidity,HourlyPrecipIn,Conditions,Clouds,dailyrainin,SoftwareType,DateUTC
2013-04-21 00:01:00,38.7,23.9,30.22,NNW,338,2.1,4.6,55,0.00,RA,,0.00,WeatherDisplay:10.37,2013-04-21 04:01:00,
2013-04-21 00:02:00,38.5,23.7,30.22,NNW,338,2.2,2.3,55,0.00,RA,,0.00,WeatherDisplay:10.37,2013-04-21 04:02:00,
2013-04-21 00:03:00,38.5,23.7,30.22,NNW,338,2.2,4.6,55,0.00,RA,,0.00,WeatherDisplay:10.37,2013-04-21 04:03:00,
2013-04-21 00:05:00,38.5,23.7,30.22,NNW,338,2.2,4.6,55,0.00,RA,,0.00,WeatherDisplay:10.37,2013-04-21 04:05:00,
2013-04-21 00:06:00,38.5,23.7,30.22,NNW,338,2.2,4.6,55,0.00,RA,,0.00,WeatherDisplay:10.37,2013-04-21 04:06:00,
2013-04-21 00:11:00,38.5,23.7,30.22,NNW,338,2.2,4.6,55,0.00,CLR,,0.00,WeatherDisplay:10.37,2013-04-21 04:11:00,
2013-04-21 00:16:00,38.3,23.1,30.24,SW,225,3.3,4.6,54,0.00,CLR,,0.00,WeatherDisplay:10.37,2013-04-21 04:16:00,
2013-04-21 00:21:00,37.8,22.6,30.24,NE,45,3.0,5.8,54,0.00,CLR,,0.00,WeatherDisplay:10.37,2013-04-21 04:21:00,
2013-04-21 00:26:00,37.6,22.4,30.24,WNW,292,2.4,3.5,54,0.00,CLR,,0.00,WeatherDisplay:10.37,2013-04-21 04:26:00,
2013-04-21 00:31:00,37.2,22.5,30.24,WNW,292,2.1,6.9,55,0.00,CLR,,0.00,WeatherDisplay:10.37,2013-04-21 04:31:00,
2013-04-21 00:36:00,37.2,22.1,30.24,SW,225,2.5,5.8,54,0.00,CLR,,0.00,WeatherDisplay:10.37,2013-04-21 04:36:00,
2013-04-21 00:41:00,37.0,21.9,30.24,SSE,158,3.5,4.6,54,0.00,CLR,,0.00,WeatherDisplay:10.37,2013-04-21 04:41:00,
2013-04-21 00:46:00,37.0,21.5,30.24,WNW,292,3.7,3.7,53,0.00,CLR,,0.00,WeatherDisplay:10.37,2013-04-21 04:46:00,
2013-04-21 00:51:00,36.9,21.3,30.24,SW,225,4.1,4.6,53,0.00,CLR,,0.00,WeatherDisplay:10.37,2013-04-21 04:51:00,
2013-04-21 00:56:00,36.5,21.4,30.25,South,180,3.5,5.8,54,0.00,CLR,,0.00,WeatherDisplay:10.37,2013-04-21 04:56:00,
2013-04-21 01:01:00,36.3,21.7,30.25,NE,45,3.0,3.5,55,0.00,CLR,,0.00,WeatherDisplay:10.37,2013-04-21 05:01:00,
2013-04-21 01:06:00,36.1,21.1,30.25,West,270,3.0,3.5,54,0.00,CLR,,0.00,WeatherDisplay:10.37,2013-04-21 05:06:00,
2013-04-21 01:11:00,36.1,20.6,30.25,SW,225,2.8,3.5,53,0.00,CLR,,0.00,WeatherDisplay:10.37,2013-04-21 05:11:00,
2013-04-21 01:16:00,35.8,20.3,30.25,SW,225,2.6,4.6,53,0.00,CLR,,0.00,WeatherDisplay:10.37,2013-04-21 05:16:00,
2013-04-21 01:21:00,35.8,20.7,30.25,NNW,338,2.6,9.2,54,0.00,CLR,,0.00,WeatherDisplay:10.37,2013-04-21 05:21:00,
2013-04-21 01:26:00,35.6,19.7,30.25,NW,315,2.8,2.8,52,0.00,CLR,,0.00,WeatherDisplay:10.37,2013-04-21 05:26:00,
2013-04-21 01:31:00,35.4,20.0,30.25,NW,315,2.9,3.5,53,0.00,CLR,,0.00,WeatherDisplay:10.37,2013-04-21 05:31:00,
2013-04-21 01:36:00,35.1,19.6,30.26,West,270,3.1,4.6,53,0.00,CLR,,0.00,WeatherDisplay:10.37,2013-04-21 05:36:00,
2013-04-21 01:41:00,34.9,19.9,30.26,NNW,338,2.6,4.6,54,0.00,CLR,,0.00,WeatherDisplay:10.37,2013-04-21 05:41:00,
2013-04-21 01:46:00,34.9,20.3,30.26,NW,315,2.3,2.3,55,0.00,CLR,,0.00,WeatherDisplay:10.37,2013-04-21 05:46:00,
2013-04-21 01:51:00,34.7,20.2,30.26,WNW,292,2.1,2.3,55,0.00,CLR,,0.00,WeatherDisplay:10.37,2013-04-21 05:51:00,
2013-04-21 01:56:00,34.3,20.3,30.26,West,270,2.0,2.3,56,0.00,CLR,,0.00,WeatherDisplay:10.37,2013-04-21 05:56:00,
2013-04-21 02:01:00,34.2,20.1,30.26,SW,225,1.8,3.5,56,0.00,CLR,,0.00,WeatherDisplay:10.37,2013-04-21 06:01:00,
2013-04-21 02:06:00,34.2,20.1,30.26,West,270,1.6,0.0,56,0.00,CLR,,0.00,WeatherDisplay:10.37,2013-04-21 06:06:00,
2013-04-21 02:11:00,34.0,19.9,30.26,SSW,202,1.6,2.3,56,0.00,CLR,,0.00,WeatherDisplay:10.37,2013-04-21 06:11:00,
2013-04-21 02:16:00,34.0,20.3,30.27,SW,225,1.6,2.3,57,0.00,CLR,,0.00,WeatherDisplay:10.37,2013-04-21 06:16:00,
2013-04-21 02:21:00,33.8,20.6,30.27,NNW,338,1.5,2.3,58,0.00,CLR,,0.00,WeatherDisplay:10.37,2013-04-21 06:21:00,
2013-04-21 02:26:00,33.4,20.2,30.27,SSE,158,1.4,1.4,58,0.00,CLR,,0.00,WeatherDisplay:10.37,2013-04-21 06:26:00,
2013-04-21 02:31:00,33.4,20.6,30.27,ENE,68,1.1,2.3,59,0.00,CLR,,0.00,WeatherDisplay:10.37,2013-04-21 06:31:00,
2013-04-21 02:36:00,33.1,20.3,30.27,NNW,338,1.1,3.5,59,0.00,CLR,,0.00,WeatherDisplay:10.37,2013-04-21 06:36:00,
2013-04-21 02:41:00,33.3,20.9,30.28,NW,315,1.6,2.3,60,0.00,CLR,,0.00,WeatherDisplay:10.37,2013-04-21 06:41:00,
2013-04-21 02:46:00,32.9,20.5,30.28,WNW,292,1.5,1.5,60,0.00,CLR,,0.00,WeatherDisplay:10.37,2013-04-21 06:46:00,
2013-04-21 02:51:00,32.7,20.7,30.28,SW,225,1.4,4.6,61,0.00,CLR,,0.00,WeatherDisplay:10.37,2013-04-21 06:51:00,
2013-04-21 02:56:00,32.7,20.7,30.29,East,90,1.1,1.1,61,0.00,CLR,,0.00,WeatherDisplay:10.37,2013-04-21 06:56:00,
2013-04-21 03:01:00,32.5,20.6,30.29,SSW,202,0.9,1.1,61,0.00,CLR,,0.00,WeatherDisplay:10.37,2013-04-21 07:01:00,
2013-04-21 03:06:00,32.5,20.6,30.29,SW,225,0.8,0.0,61,0.00,CLR,,0.00,WeatherDisplay:10.37,2013-04-21 07:06:00,
2013-04-21 03:11:00,32.5,20.6,30.29,SW,225,0.8,0.0,61,0.00,CLR,,0.00,WeatherDisplay:10.37,2013-04-21 07:11:00,
2013-04-21 03:16:00,32.0,20.4,30.30,WNW,292,0.7,2.0,62,0.00,CLR,,0.00,WeatherDisplay:10.37,2013-04-21 07:16:00,
2013-04-21 03:21:00,32.0,20.4,30.30,NNE,22,0.8,2.3,62,0.00,CLR,,0.00,WeatherDisplay:10.37,2013-04-21 07:21:00,
2013-04-21 03:26:00,31.8,20.3,30.30,NNW,338,0.6,2.3,62,0.00,CLR,,0.00,WeatherDisplay:10.37,2013-04-21 07:26:00,
2013-04-21 03:31:00,31.8,20.6,30.30,SE,135,0.8,3.5,63,0.00,CLR,,0.00,WeatherDisplay:10.37,2013-04-21 07:31:00,
2013-04-21 03:36:00,31.8,20.6,30.30,NW,315,1.1,2.3,63,0.00,CLR,,0.00,WeatherDisplay:10.37,2013-04-21 07:36:00,
2013-04-21 03:41:00,31.8,21.0,30.30,SW,225,1.0,2.3,64,0.00,CLR,,0.00,WeatherDisplay:10.37,2013-04-21 07:41:00,
2013-04-21 03:46:00,31.8,21.0,30.30,SW,225,0.9,2.3,64,0.00,CLR,,0.00,WeatherDisplay:10.37,2013-04-21 07:46:00,
2013-04-21 03:51:00,31.5,20.7,30.30,NW,315,0.8,1.1,64,0.00,CLR,,0.00,WeatherDisplay:10.37,2013-04-21 07:51:00,
2013-04-21 03:56:00,31.5,20.3,30.30,NW,315,0.6,0.0,63,0.00,CLR,,0.00,WeatherDisplay:10.37,2013-04-21 07:56:00,
2013-04-21 04:01:00,31.5,20.7,30.30,NW,315,1.0,2.3,64,0.00,CLR,,0.00,WeatherDisplay:10.37,2013-04-21 08:01:00,
2013-04-21 04:06:00,31.5,20.7,30.30,WNW,292,1.1,1.1,64,0.00,CLR,,0.00,WeatherDisplay:10.37,2013-04-21 08:06:00,
2013-04-21 04:11:00,31.5,21.0,30.30,NNW,338,1.3,2.3,65,0.00,CLR,,0.00,WeatherDisplay:10.37,2013-04-21 08:11:00,
2013-04-21 04:16:00,31.5,21.0,30.30,NE,45,1.1,0.0,65,0.00,CLR,,0.00,WeatherDisplay:10.37,2013-04-21 08:16:00,
2013-04-21 04:21:00,31.1,20.3,30.31,East,90,0.8,0.0,64,0.00,CLR,,0.00,WeatherDisplay:10.37,2013-04-21 08:21:00,
2013-04-21 04:26:00,31.5,20.7,30.31,NNW,338,0.6,0.0,64,0.00,CLR,,0.00,WeatherDisplay:10.37,2013-04-21 08:26:00,
2013-04-21 04:31:00,31.1,20.3,30.31,NNW,338,0.6,2.3,64,0.00,CLR,,0.00,WeatherDisplay:10.37,2013-04-21 08:31:00,
2013-04-21 04:36:00,31.1,20.3,30.31,NW,315,0.8,0.0,64,0.00,CLR,,0.00,WeatherDisplay:10.37,2013-04-21 08:36:00,
2013-04-21 04:41:00,31.1,20.3,30.31,East,90,0.7,0.0,64,0.00,CLR,,0.00,WeatherDisplay:10.37,2013-04-21 08:41:00,
2013-04-21 04:46:00,31.1,20.7,30.31,West,270,0.8,2.3,65,0.00,CLR,,0.00,WeatherDisplay:10.37,2013-04-21 08:46:00,
2013-04-21 04:51:00,31.1,20.3,30.31,ESE,112,0.9,1.1,64,0.00,CLR,,0.00,WeatherDisplay:10.37,2013-04-21 08:51:00,
2013-04-21 04:56:00,31.1,20.7,30.32,WNW,292,0.7,0.0,65,0.00,CLR,,0.00,WeatherDisplay:10.37,2013-04-21 08:56:00,
2013-04-21 05:01:00,30.9,20.5,30.32,West,270,0.8,1.1,65,0.00,CLR,,0.00,WeatherDisplay:10.37,2013-04-21 09:01:00,
2013-04-21 05:06:00,31.1,20.7,30.32,NNW,338,0.8,2.3,65,0.00,CLR,,0.00,WeatherDisplay:10.37,2013-04-21 09:06:00,
2013-04-21 05:11:00,30.7,20.4,30.32,SW,225,0.5,2.3,65,0.00,CLR,,0.00,WeatherDisplay:10.37,2013-04-21 09:11:00,
2013-04-21 05:16:00,30.6,20.5,30.33,WNW,292,0.3,0.0,66,0.00,CLR,,0.00,WeatherDisplay:10.37,2013-04-21 09:16:00,
2013-04-21 05:21:00,30.6,20.9,30.33,SE,135,0.8,2.3,67,0.00,CLR,,0.00,WeatherDisplay:10.37,2013-04-21 09:21:00,
2013-04-21 05:26:00,30.4,20.7,30.33,South,180,1.1,2.3,67,0.00,CLR,,0.00,WeatherDisplay:10.37,2013-04-21 09:26:00,
2013-04-21 05:31:00,30.4,20.7,30.33,WSW,248,1.1,4.6,67,0.00,CLR,,0.00,WeatherDisplay:10.37,2013-04-21 09:31:00,
2013-04-21 05:36:00,30.4,20.7,30.34,North,0,1.0,0.0,67,0.00,CLR,,0.00,WeatherDisplay:10.37,2013-04-21 09:36:00,
2013-04-21 05:41:00,30.4,20.7,30.34,NNW,338,1.0,2.3,67,0.00,CLR,,0.00,WeatherDisplay:10.37,2013-04-21 09:41:00,
2013-04-21 05:46:00,30.4,20.7,30.34,ENE,68,0.3,0.0,67,0.00,CLR,,0.00,WeatherDisplay:10.37,2013-04-21 09:46:00,
2013-04-21 05:51:00,30.0,20.0,30.34,NW,315,0.0,0.0,66,0.00,CLR,,0.00,WeatherDisplay:10.37,2013-04-21 09:51:00,
2013-04-21 05:56:00,30.4,20.7,30.36,WNW,292,0.3,0.0,67,0.00,CLR,,0.00,WeatherDisplay:10.37,2013-04-21 09:56:00,
2013-04-21 06:01:00,30.2,20.6,30.36,WNW,292,0.6,1.1,67,0.00,CLR,,0.00,WeatherDisplay:10.37,2013-04-21 10:01:00,
2013-04-21 06:06:00,30.4,20.7,30.36,NNE,22,0.6,1.1,67,0.00,CLR,,0.00,WeatherDisplay:10.37,2013-04-21 10:06:00,
2013-04-21 06:11:00,30.4,20.7,30.36,NNE,22,0.6,1.1,67,0.00,CLR,,0.00,WeatherDisplay:10.37,2013-04-21 10:11:00,
2013-04-21 06:16:00,30.0,20.7,30.38,NNE,22,0.6,2.3,68,0.00,CLR,,0.00,WeatherDisplay:10.37,2013-04-21 10:16:00,
2013-04-21 06:21:00,30.4,21.1,30.38,NE,45,0.3,1.1,68,0.00,CLR,,0.00,WeatherDisplay:10.37,2013-04-21 10:21:00,
2013-04-21 06:26:00,30.2,20.9,30.38,NE,45,0.7,2.3,68,0.00,CLR,,0.00,WeatherDisplay:10.37,2013-04-21 10:26:00,
2013-04-21 06:31:00,30.4,21.4,30.38,NNE,22,0.9,2.3,69,0.00,CLR,,0.00,WeatherDisplay:10.37,2013-04-21 10:31:00,
2013-04-21 06:36:00,30.7,21.4,30.39,NW,315,0.6,0.0,68,0.00,CLR,,0.00,WeatherDisplay:10.37,2013-04-21 10:36:00,
2013-04-21 06:41:00,30.7,21.4,30.39,WNW,292,0.2,1.1,68,0.00,CLR,,0.00,WeatherDisplay:10.37,2013-04-21 10:41:00,
2013-04-21 06:46:00,30.9,21.2,30.39,SW,225,0.7,2.3,67,0.00,CLR,,0.00,WeatherDisplay:10.37,2013-04-21 10:46:00,
2013-04-21 06:51:00,31.1,21.8,30.39,North,0,1.1,2.3,68,0.00,CLR,,0.00,WeatherDisplay:10.37,2013-04-21 10:51:00,
2013-04-21 06:56:00,31.8,22.1,30.40,SW,225,1.4,0.0,67,0.00,CLR,,0.00,WeatherDisplay:10.37,2013-04-21 10:56:00,
2013-04-21 07:01:00,31.8,22.1,30.40,NW,315,1.0,1.1,67,0.00,CLR,,0.00,WeatherDisplay:10.37,2013-04-21 11:01:00,
2013-04-21 07:06:00,32.4,22.6,30.40,SW,225,1.1,1.1,67,0.00,CLR,,0.00,WeatherDisplay:10.37,2013-04-21 11:06:00,
2013-04-21 07:11:00,32.5,22.4,30.40,NNW,338,1.1,3.5,66,0.00,CLR,,0.00,WeatherDisplay:10.37,2013-04-21 11:11:00,
2013-04-21 07:16:00,32.7,22.2,30.41,ENE,68,1.7,2.3,65,0.00,CLR,,0.00,WeatherDisplay:10.37,2013-04-21 11:16:00,
2013-04-21 07:21:00,33.3,22.4,30.41,West,270,1.8,3.5,64,0.00,CLR,,0.00,WeatherDisplay:10.37,2013-04-21 11:21:00,
2013-04-21 07:26:00,33.4,22.2,30.41,NNW,338,1.8,1.8,63,0.00,CLR,,0.00,WeatherDisplay:10.37,2013-04-21 11:26:00,
2013-04-21 07:31:00,34.0,22.3,30.41,NW,315,2.1,4.6,62,0.00,CLR,,0.00,WeatherDisplay:10.37,2013-04-21 11:31:00,
2013-04-21 07:36:00,34.2,22.5,30.43,SW,225,2.0,2.0,62,0.00,CLR,,0.00,WeatherDisplay:10.37,2013-04-21 11:36:00,
2013-04-21 07:41:00,34.3,22.3,30.43,NW,315,1.6,3.5,61,0.00,CLR,,0.00,WeatherDisplay:10.37,2013-04-21 11:41:00,
2013-04-21 07:46:00,34.7,22.2,30.43,NNE,22,1.8,5.8,60,0.00,CLR,,0.00,WeatherDisplay:10.37,2013-04-21 11:46:00,
2013-04-21 07:51:00,34.9,22.4,30.43,NNE,22,1.7,2.3,60,0.00,CLR,,0.00,WeatherDisplay:10.37,2013-04-21 11:51:00,
2013-04-21 07:56:00,35.4,22.5,30.44,NNE,22,1.7,1.7,59,0.00,CLR,,0.00,WeatherDisplay:10.37,2013-04-21 11:56:00,
2013-04-21 08:01:00,35.6,22.7,30.44,NNE,22,1.8,4.6,59,0.00,CLR,,0.00,WeatherDisplay:10.37,2013-04-21 12:01:00,
2013-04-21 08:06:00,35.8,22.4,30.44,North,0,1.8,3.5,58,0.00,CLR,,0.00,WeatherDisplay:10.37,2013-04-21 12:06:00,
2013-04-21 08:11:00,36.3,22.5,30.44,SW,225,2.1,2.3,57,0.00,CLR,,0.00,WeatherDisplay:10.37,2013-04-21 12:11:00,
2013-04-21 08:16:00,36.9,22.2,30.44,East,90,2.0,2.8,55,0.00,CLR,,0.00,WeatherDisplay:10.37,2013-04-21 12:16:00,
2013-04-21 08:21:00,37.0,21.9,30.47,ENE,68,2.5,4.6,54,0.00,CLR,,0.00,WeatherDisplay:10.37,2013-04-21 12:21:00,
2013-04-21 08:26:00,37.6,22.9,30.47,NW,315,2.3,2.3,55,0.00,CLR,,0.00,WeatherDisplay:10.37,2013-04-21 12:26:00,
2013-04-21 08:31:00,37.8,22.6,30.47,SSE,158,1.8,3.5,54,0.00,CLR,,0.00,WeatherDisplay:10.37,2013-04-21 12:31:00,
2013-04-21 08:36:00,38.1,22.5,30.47,WSW,248,2.0,2.0,53,0.00,CLR,,0.00,WeatherDisplay:10.37,2013-04-21 12:36:00,
2013-04-21 08:41:00,38.7,23.0,30.49,NNE,22,2.5,5.8,53,0.00,CLR,,0.00,WeatherDisplay:10.37,2013-04-21 12:41:00,
2013-04-21 08:46:00,39.0,22.9,30.49,ENE,68,2.9,3.5,52,0.00,CLR,,0.00,WeatherDisplay:10.37,2013-04-21 12:46:00,
2013-04-21 08:51:00,39.7,23.5,30.49,WNW,292,2.8,2.8,52,0.00,CLR,,0.00,WeatherDisplay:10.37,2013-04-21 12:51:00,
2013-04-21 08:56:00,39.9,23.2,30.49,NE,45,2.3,2.3,51,0.00,CLR,,0.00,WeatherDisplay:10.37,2013-04-21 12:56:00,
2013-04-21 09:01:00,40.1,22.4,30.50,NNW,338,2.4,2.8,49,0.00,CLR,,0.00,WeatherDisplay:10.37,2013-04-21 13:01:00,
2013-04-21 09:06:00,40.3,22.6,30.50,SSW,202,2.4,9.2,49,0.00,CLR,,0.00,WeatherDisplay:10.37,2013-04-21 13:06:00,
2013-04-21 09:11:00,39.2,21.6,30.50,WSW,248,2.6,3.5,49,0.00,CLR,,0.00,WeatherDisplay:10.37,2013-04-21 13:11:00,
2013-04-21 09:16:00,39.2,21.6,30.50,NE,45,3.0,4.6,49,0.00,CLR,,0.00,WeatherDisplay:10.37,2013-04-21 13:16:00,
2013-04-21 09:21:00,39.6,22.4,30.52,NE,45,2.6,2.6,50,0.00,CLR,,0.00,WeatherDisplay:10.37,2013-04-21 13:21:00,
2013-04-21 09:26:00,39.7,22.1,30.52,NW,315,2.6,3.5,49,0.00,CLR,,0.00,WeatherDisplay:10.37,2013-04-21 13:26:00,
2013-04-21 09:31:00,39.7,22.6,30.52,WNW,292,2.6,5.8,50,0.00,CLR,,0.00,WeatherDisplay:10.37,2013-04-21 13:31:00,
2013-04-21 09:36:00,39.7,23.1,30.52,SSE,158,2.6,3.5,51,0.00,CLR,,0.00,WeatherDisplay:10.37,2013-04-21 13:36:00,
2013-04-21 09:41:00,39.9,23.2,30.53,East,90,3.0,4.6,51,0.00,CLR,,0.00,WeatherDisplay:10.37,2013-04-21 13:41:00,
2013-04-21 09:46:00,40.1,23.4,30.53,West,270,2.2,2.3,51,0.00,CLR,,0.00,WeatherDisplay:10.37,2013-04-21 13:46:00,
2013-04-21 09:51:00,40.5,23.3,30.53,ENE,68,2.9,8.1,50,0.00,CLR,,0.00,WeatherDisplay:10.37,2013-04-21 13:51:00,
2013-04-21 09:56:00,40.3,23.6,30.53,WNW,292,2.9,3.5,51,0.00,CLR,,0.00,WeatherDisplay:10.37,2013-04-21 13:56:00,
2013-04-21 10:01:00,40.5,22.8,30.54,North,0,2.8,4.6,49,0.00,CLR,,0.00,WeatherDisplay:10.37,2013-04-21 14:01:00,
2013-04-21 10:06:00,40.5,23.3,30.54,South,180,2.2,2.3,50,0.00,CLR,,0.00,WeatherDisplay:10.37,2013-04-21 14:06:00,
2013-04-21 10:11:00,40.8,23.1,30.54,NW,315,2.6,5.8,49,0.00,CLR,,0.00,WeatherDisplay:10.37,2013-04-21 14:11:00,
2013-04-21 10:16:00,40.8,22.6,30.55,SSE,158,2.6,2.6,48,0.00,CLR,,0.00,WeatherDisplay:10.37,2013-04-21 14:16:00,
2013-04-21 10:21:00,40.8,23.6,30.55,NNE,22,2.3,4.6,50,0.00,CLR,,0.00,WeatherDisplay:10.37,2013-04-21 14:21:00,
2013-04-21 10:26:00,41.2,23.9,30.55,NNE,22,2.1,3.5,50,0.00,CLR,,0.00,WeatherDisplay:10.37,2013-04-21 14:26:00,
2013-04-21 10:31:00,41.5,22.8,30.55,SSW,202,2.6,4.6,47,0.00,CLR,,0.00,WeatherDisplay:10.37,2013-04-21 14:31:00,
2013-04-21 10:36:00,41.2,22.5,30.55,NNE,22,3.0,3.5,47,0.00,CLR,,0.00,WeatherDisplay:10.37,2013-04-21 14:36:00,
2013-04-21 10:41:00,41.5,23.8,30.55,SW,225,2.2,5.8,49,0.00,CLR,,0.00,WeatherDisplay:10.37,2013-04-21 14:41:00,
2013-04-21 10:46:00,42.1,24.8,30.55,NNE,22,2.5,2.5,50,0.00,CLR,,0.00,WeatherDisplay:10.37,2013-04-21 14:46:00,
2013-04-21 10:51:00,42.3,23.4,30.55,SW,225,2.6,2.6,47,0.00,CLR,,0.00,WeatherDisplay:10.37,2013-04-21 14:51:00,
2013-04-21 10:56:00,42.4,23.6,30.55,NNE,22,2.5,2.5,47,0.00,CLR,,0.00,WeatherDisplay:10.37,2013-04-21 14:56:00,
2013-04-21 11:01:00,42.6,22.7,30.56,WNW,292,2.3,5.8,45,0.00,CLR,,0.00,WeatherDisplay:10.37,2013-04-21 15:01:00,
2013-04-21 11:06:00,42.1,22.8,30.56,NNW,338,2.4,3.5,46,0.00,CLR,,0.00,WeatherDisplay:10.37,2013-04-21 15:06:00,
2013-04-21 11:11:00,42.8,24.4,30.56,SE,135,2.6,2.6,48,0.00,CLR,,0.00,WeatherDisplay:10.37,2013-04-21 15:11:00,
2013-04-21 11:16:00,43.3,23.9,30.56,NNE,22,2.3,2.6,46,0.00,CLR,,0.00,WeatherDisplay:10.37,2013-04-21 15:16:00,
2013-04-21 11:21:00,43.5,23.6,30.56,West,270,2.6,3.5,45,0.00,CLR,,0.00,WeatherDisplay:10.37,2013-04-21 15:21:00,
2013-04-21 11:26:00,43.7,24.8,30.56,ENE,68,2.6,2.6,47,0.00,CLR,,0.00,WeatherDisplay:10.37,2013-04-21 15:26:00,
2013-04-21 11:31:00,44.2,25.3,30.56,SSW,202,2.6,6.9,47,0.00,CLR,,0.00,WeatherDisplay:10.37,2013-04-21 15:31:00,
2013-04-21 11:36:00,44.2,24.7,30.56,NNE,22,2.5,3.5,46,0.00,CLR,,0.00,WeatherDisplay:10.37,2013-04-21 15:36:00,
2013-04-21 11:41:00,44.4,24.4,30.57,SSW,202,2.6,3.5,45,0.00,CLR,,0.00,WeatherDisplay:10.37,2013-04-21 15:41:00,
2013-04-21 11:46:00,44.2,24.7,30.57,NE,45,2.5,3.5,46,0.00,CLR,,0.00,WeatherDisplay:10.37,2013-04-21 15:46:00,
2013-04-21 11:51:00,44.8,24.7,30.57,NNE,22,2.9,5.8,45,0.00,CLR,,0.00,WeatherDisplay:10.37,2013-04-21 15:51:00,
2013-04-21 11:56:00,45.0,25.4,30.57,NNE,22,2.8,2.8,46,0.00,CLR,,0.00,WeatherDisplay:10.37,2013-04-21 15:56:00,
2013-04-21 12:01:00,44.8,24.2,30.57,NNE,22,2.6,3.5,44,0.00,CLR,,0.00,WeatherDisplay:10.37,2013-04-21 16:01:00,
2013-04-21 12:06:00,44.8,24.2,30.57,East,90,2.6,2.6,44,0.00,CLR,,0.00,WeatherDisplay:10.37,2013-04-21 16:06:00,
2013-04-21 12:11:00,44.8,24.2,30.57,East,90,2.6,2.6,44,0.00,CLR,,0.00,WeatherDisplay:10.37,2013-04-21 16:11:00,
2013-04-21 12:16:00,45.7,24.4,30.57,SW,225,2.9,3.5,43,0.00,CLR,,0.00,WeatherDisplay:10.37,2013-04-21 16:16:00,
2013-04-21 12:21:00,45.5,24.3,30.57,NE,45,2.6,3.5,43,0.00,CLR,,0.00,WeatherDisplay:10.37,2013-04-21 16:21:00,
2013-04-21 12:26:00,45.9,25.7,30.57,NNW,338,2.4,4.6,45,0.00,CLR,,0.00,WeatherDisplay:10.37,2013-04-21 16:26:00,
2013-04-21 12:31:00,45.9,25.7,30.57,SSE,158,2.1,4.6,45,0.00,CLR,,0.00,WeatherDisplay:10.37,2013-04-21 16:31:00,
2013-04-21 12:36:00,46.4,25.1,30.57,WNW,292,2.1,2.3,43,0.00,CLR,,0.00,WeatherDisplay:10.37,2013-04-21 16:36:00,
2013-04-21 12:41:00,46.4,25.1,30.57,NE,45,2.3,8.1,43,0.00,CLR,,0.00,WeatherDisplay:10.37,2013-04-21 16:41:00,
2013-04-21 12:46:00,46.6,24.7,30.57,NNE,22,2.6,3.5,42,0.00,CLR,,0.00,WeatherDisplay:10.37,2013-04-21 16:46:00,
2013-04-21 12:51:00,46.9,25.6,30.57,SW,225,2.6,3.5,43,0.00,CLR,,0.00,WeatherDisplay:10.37,2013-04-21 16:51:00,
2013-04-21 12:56:00,47.3,25.3,30.57,ENE,68,2.4,3.5,42,0.00,CLR,,0.00,WeatherDisplay:10.37,2013-04-21 16:56:00,
2013-04-21 13:01:00,47.8,26.4,30.56,NW,315,2.9,5.8,43,0.00,CLR,,0.00,WeatherDisplay:10.37,2013-04-21 17:01:00,
2013-04-21 13:06:00,47.8,24.0,30.56,NNE,22,3.2,3.2,39,0.00,CLR,,0.00,WeatherDisplay:10.37,2013-04-21 17:06:00,
2013-04-21 13:11:00,48.0,26.0,30.56,NE,45,2.6,3.5,42,0.00,CLR,,0.00,WeatherDisplay:10.37,2013-04-21 17:11:00,
2013-04-21 13:16:00,48.0,25.4,30.56,NNE,22,2.9,4.6,41,0.00,CLR,,0.00,WeatherDisplay:10.37,2013-04-21 17:16:00,
2013-04-21 13:21:00,48.7,26.1,30.57,NW,315,3.0,3.0,41,0.00,CLR,,0.00,WeatherDisplay:10.37,2013-04-21 17:21:00,
2013-04-21 13:26:00,49.1,25.8,30.57,ENE,68,2.2,3.5,40,0.00,CLR,,0.00,WeatherDisplay:10.37,2013-04-21 17:26:00,
2013-04-21 13:31:00,49.3,26.0,30.57,NNW,338,2.1,4.6,40,0.00,CLR,,0.00,WeatherDisplay:10.37,2013-04-21 17:31:00,
2013-04-21 13:36:00,49.3,25.3,30.56,SSW,202,2.6,3.5,39,0.00,CLR,,0.00,WeatherDisplay:10.37,2013-04-21 17:36:00,
2013-04-21 13:41:00,50.0,27.8,30.56,NNW,338,2.8,3.5,42,0.00,CLR,,0.00,WeatherDisplay:10.37,2013-04-21 17:41:00,
2013-04-21 13:46:00,50.5,27.7,30.56,SW,225,2.2,3.5,41,0.00,CLR,,0.00,WeatherDisplay:10.37,2013-04-21 17:46:00,
2013-04-21 13:51:00,55.0,28.5,30.56,WNW,292,2.0,3.5,36,0.00,CLR,,0.00,WeatherDisplay:10.37,2013-04-21 17:51:00,
2013-04-21 13:56:00,59.9,29.9,30.56,ENE,68,2.1,2.3,32,0.00,CLR,,0.00,WeatherDisplay:10.37,2013-04-21 17:56:00,
2013-04-21 14:01:00,61.3,31.2,30.57,WSW,248,2.2,4.6,32,0.00,CLR,,0.00,WeatherDisplay:10.37,2013-04-21 18:01:00,
2013-04-21 14:06:00,61.3,29.6,30.57,NNW,338,2.1,2.1,30,0.00,CLR,,0.00,WeatherDisplay:10.37,2013-04-21 18:06:00,
2013-04-21 14:11:00,62.1,28.5,30.57,WNW,292,2.5,4.6,28,0.00,CLR,,0.00,WeatherDisplay:10.37,2013-04-21 18:11:00,
2013-04-21 14:16:00,62.1,26.7,30.57,West,270,2.8,2.8,26,0.00,CLR,,0.00,WeatherDisplay:10.37,2013-04-21 18:16:00,
2013-04-21 14:21:00,60.6,28.2,30.56,NE,45,2.9,2.9,29,0.00,CLR,,0.00,WeatherDisplay:10.37,2013-04-21 18:21:00,
2013-04-21 14:26:00,61.3,29.6,30.56,SW,225,2.0,2.3,30,0.00,CLR,,0.00,WeatherDisplay:10.37,2013-04-21 18:26:00,
2013-04-21 14:31:00,58.3,27.7,30.56,NNE,22,1.5,1.5,31,0.00,CLR,,0.00,WeatherDisplay:10.37,2013-04-21 18:31:00,
2013-04-21 14:36:00,57.9,27.4,30.56,SE,135,1.7,1.7,31,0.00,CLR,,0.00,WeatherDisplay:10.37,2013-04-21 18:36:00,
2013-04-21 14:41:00,58.5,27.1,30.56,NE,45,2.1,5.8,30,0.00,CLR,,0.00,WeatherDisplay:10.37,2013-04-21 18:41:00,
2013-04-21 14:46:00,58.8,25.7,30.56,SSE,158,2.0,2.0,28,0.00,CLR,,0.00,WeatherDisplay:10.37,2013-04-21 18:46:00,
2013-04-21 14:51:00,57.4,26.2,30.56,WSW,248,1.6,3.5,30,0.00,CLR,,0.00,WeatherDisplay:10.37,2013-04-21 18:51:00,
2013-04-21 14:56:00,56.3,23.6,30.56,NNW,338,2.4,3.5,28,0.00,CLR,,0.00,WeatherDisplay:10.37,2013-04-21 18:56:00,
2013-04-21 15:01:00,55.8,24.8,30.57,East,90,2.4,3.5,30,0.00,CLR,,0.00,WeatherDisplay:10.37,2013-04-21 19:01:00,
2013-04-21 15:06:00,55.4,24.4,30.57,NNW,338,1.7,2.3,30,0.00,CLR,,0.00,WeatherDisplay:10.37,2013-04-21 19:06:00,
2013-04-21 15:11:00,54.9,24.0,30.57,NNE,22,2.4,5.8,30,0.00,CLR,,0.00,WeatherDisplay:10.37,2013-04-21 19:11:00,
2013-04-21 15:16:00,54.3,23.5,30.57,NW,315,2.2,2.2,30,0.00,CLR,,0.00,WeatherDisplay:10.37,2013-04-21 19:16:00,
2013-04-21 15:21:00,54.1,24.9,30.57,West,270,1.1,2.3,32,0.00,CLR,,0.00,WeatherDisplay:10.37,2013-04-21 19:21:00,
2013-04-21 15:26:00,53.8,23.0,30.57,SSW,202,1.6,2.3,30,0.00,CLR,,0.00,WeatherDisplay:10.37,2013-04-21 19:26:00,
2013-04-21 15:31:00,53.6,23.7,30.57,SW,225,1.8,2.3,31,0.00,CLR,,0.00,WeatherDisplay:10.37,2013-04-21 19:31:00,
2013-04-21 15:36:00,53.6,22.9,30.57,NNE,22,2.1,3.5,30,0.00,CLR,,0.00,WeatherDisplay:10.37,2013-04-21 19:36:00,
2013-04-21 15:41:00,53.8,23.8,30.56,WNW,292,2.2,3.5,31,0.00,CLR,,0.00,WeatherDisplay:10.37,2013-04-21 19:41:00,
2013-04-21 15:46:00,53.2,22.6,30.56,SSW,202,2.2,3.5,30,0.00,CLR,,0.00,WeatherDisplay:10.37,2013-04-21 19:46:00,
2013-04-21 15:51:00,53.2,23.3,30.56,East,90,1.8,5.8,31,0.00,CLR,,0.00,WeatherDisplay:10.37,2013-04-21 19:51:00,
2013-04-21 15:56:00,53.2,23.3,30.56,NNE,22,2.1,4.6,31,0.00,CLR,,0.00,WeatherDisplay:10.37,2013-04-21 19:56:00,
2013-04-21 16:01:00,52.9,22.2,30.57,ENE,68,2.4,2.4,30,0.00,CLR,,0.00,WeatherDisplay:10.37,2013-04-21 20:01:00,
2013-04-21 16:06:00,52.9,23.0,30.57,North,0,2.6,4.6,31,0.00,CLR,,0.00,WeatherDisplay:10.37,2013-04-21 20:06:00,
2013-04-21 16:11:00,53.1,22.4,30.57,NNW,338,3.1,3.5,30,0.00,CLR,,0.00,WeatherDisplay:10.37,2013-04-21 20:11:00,
2013-04-21 16:17:00,53.1,22.4,30.57,NNW,338,3.0,3.0,30,0.00,CLR,,0.00,WeatherDisplay:10.37,2013-04-21 20:17:00,
2013-04-21 16:22:00,52.9,22.2,30.57,ESE,112,2.5,6.9,30,0.00,CLR,,0.00,WeatherDisplay:10.37,2013-04-21 20:22:00,
2013-04-21 16:27:00,52.9,22.2,30.57,WSW,248,2.4,4.6,30,0.00,CLR,,0.00,WeatherDisplay:10.37,2013-04-21 20:27:00,
2013-04-21 16:32:00,52.7,22.1,30.57,WNW,292,2.2,4.6,30,0.00,CLR,,0.00,WeatherDisplay:10.37,2013-04-21 20:32:00,
2013-04-21 16:37:00,52.9,23.0,30.57,East,90,2.2,3.5,31,0.00,CLR,,0.00,WeatherDisplay:10.37,2013-04-21 20:37:00,
2013-04-21 16:42:00,53.1,23.2,30.57,NNW,338,1.6,1.6,31,0.00,CLR,,0.00,WeatherDisplay:10.37,2013-04-21 20:42:00,
2013-04-21 16:47:00,53.1,23.9,30.57,West,270,1.0,1.1,32,0.00,CLR,,0.00,WeatherDisplay:10.37,2013-04-21 20:47:00,
2013-04-21 16:52:00,53.1,22.4,30.57,NNW,338,1.1,3.5,30,0.00,CLR,,0.00,WeatherDisplay:10.37,2013-04-21 20:52:00,
2013-04-21 16:57:00,52.9,22.2,30.57,ENE,68,1.5,2.3,30,0.00,CLR,,0.00,WeatherDisplay:10.37,2013-04-21 20:57:00,
2013-04-21 17:02:00,52.9,22.2,30.57,NE,45,1.6,2.3,30,0.00,CLR,,0.00,WeatherDisplay:10.37,2013-04-21 21:02:00,
2013-04-21 17:07:00,52.9,22.2,30.57,SSE,158,1.8,2.3,30,0.00,CLR,,0.00,WeatherDisplay:10.37,2013-04-21 21:07:00,
2013-04-21 17:12:00,52.7,22.1,30.57,WNW,292,2.2,3.5,30,0.00,CLR,,0.00,WeatherDisplay:10.37,2013-04-21 21:12:00,
2013-04-21 17:17:00,52.7,21.3,30.58,East,90,2.0,3.5,29,0.00,CLR,,0.00,WeatherDisplay:10.37,2013-04-21 21:17:00,
2013-04-21 17:22:00,52.5,22.7,30.58,NE,45,1.3,0.0,31,0.00,CLR,,0.00,WeatherDisplay:10.37,2013-04-21 21:22:00,
2013-04-21 17:27:00,52.7,22.1,30.58,SSE,158,0.8,3.5,30,0.00,CLR,,0.00,WeatherDisplay:10.37,2013-04-21 21:27:00,
2013-04-21 17:32:00,52.7,21.3,30.58,NW,315,0.8,2.3,29,0.00,CLR,,0.00,WeatherDisplay:10.37,2013-04-21 21:32:00,
2013-04-21 17:37:00,52.5,21.9,30.58,East,90,0.9,0.0,30,0.00,CLR,,0.00,WeatherDisplay:10.37,2013-04-21 21:37:00,
2013-04-21 17:42:00,52.3,21.0,30.58,SW,225,1.3,5.8,29,0.00,CLR,,0.00,WeatherDisplay:10.37,2013-04-21 21:42:00,
2013-04-21 17:47:00,52.0,21.5,30.58,WSW,248,1.4,2.3,30,0.00,CLR,,0.00,WeatherDisplay:10.37,2013-04-21 21:47:00,
2013-04-21 17:52:00,51.6,21.9,30.58,NNE,22,1.5,2.3,31,0.00,CLR,,0.00,WeatherDisplay:10.37,2013-04-21 21:52:00,
2013-04-21 17:57:00,51.3,21.6,30.59,WNW,292,1.4,1.4,31,0.00,CLR,,0.00,WeatherDisplay:10.37,2013-04-21 21:57:00,
2013-04-21 18:02:00,50.5,21.0,30.59,NE,45,1.8,4.6,31,0.00,CLR,,0.00,WeatherDisplay:10.37,2013-04-21 22:02:00,
2013-04-21 18:07:00,50.5,22.5,30.59,SE,135,1.6,1.6,33,0.00,CLR,,0.00,WeatherDisplay:10.37,2013-04-21 22:07:00,
2013-04-21 18:12:00,49.8,20.4,30.59,SE,135,1.1,2.3,31,0.00,CLR,,0.00,WeatherDisplay:10.37,2013-04-21 22:12:00,
2013-04-21 18:17:00,49.8,20.4,30.59,ENE,68,1.3,0.0,31,0.00,CLR,,0.00,WeatherDisplay:10.37,2013-04-21 22:17:00,
2013-04-21 18:22:00,49.8,21.1,30.59,NNE,22,0.8,1.1,32,0.00,CLR,,0.00,WeatherDisplay:10.37,2013-04-21 22:22:00,
2013-04-21 18:27:00,49.5,20.8,30.59,NNE,22,0.8,2.3,32,0.00,CLR,,0.00,WeatherDisplay:10.37,2013-04-21 22:27:00,
2013-04-21 18:32:00,49.3,20.6,30.59,NE,45,1.6,2.3,32,0.00,CLR,,0.00,WeatherDisplay:10.37,2013-04-21 22:32:00,
2013-04-21 18:37:00,49.1,20.5,30.60,NNW,338,1.5,1.5,32,0.00,CLR,,0.00,WeatherDisplay:10.37,2013-04-21 22:37:00,
2013-04-21 18:42:00,48.4,20.6,30.60,NNE,22,0.5,1.3,33,0.00,CLR,,0.00,WeatherDisplay:10.37,2013-04-21 22:42:00,
2013-04-21 18:47:00,48.0,20.2,30.60,NE,45,0.3,0.0,33,0.00,CLR,,0.00,WeatherDisplay:10.37,2013-04-21 22:47:00,
2013-04-21 18:52:00,47.8,20.8,30.60,East,90,0.7,0.0,34,0.00,CLR,,0.00,WeatherDisplay:10.37,2013-04-21 22:52:00,
2013-04-21 18:57:00,47.7,19.9,30.61,NNE,22,0.8,2.3,33,0.00,CLR,,0.00,WeatherDisplay:10.37,2013-04-21 22:57:00,
2013-04-21 19:02:00,47.5,19.8,30.61,NE,45,1.1,2.3,33,0.00,CLR,,0.00,WeatherDisplay:10.37,2013-04-21 23:02:00,
2013-04-21 19:07:00,47.1,20.8,30.61,NNE,22,0.9,1.1,35,0.00,CLR,,0.00,WeatherDisplay:10.37,2013-04-21 23:07:00,
2013-04-21 19:12:00,46.6,19.7,30.61,NE,45,0.9,1.1,34,0.00,CLR,,0.00,WeatherDisplay:10.37,2013-04-21 23:12:00,
2013-04-21 19:17:00,46.6,19.7,30.62,East,90,1.1,1.1,34,0.00,CLR,,0.00,WeatherDisplay:10.37,2013-04-21 23:17:00,
2013-04-21 19:22:00,46.2,19.4,30.62,ESE,112,1.1,1.1,34,0.00,CLR,,0.00,WeatherDisplay:10.37,2013-04-21 23:22:00,
2013-04-21 19:27:00,46.2,19.4,30.62,NE,45,0.9,0.0,34,0.00,CLR,,0.00,WeatherDisplay:10.37,2013-04-21 23:27:00,
2013-04-21 19:32:00,45.7,20.2,30.62,NE,45,0.7,3.1,36,0.00,CLR,,0.00,WeatherDisplay:10.37,2013-04-21 23:32:00,
2013-04-21 19:37:00,45.5,20.1,30.63,NNE,22,0.5,1.1,36,0.00,CLR,,0.00,WeatherDisplay:10.37,2013-04-21 23:37:00,
2013-04-21 19:42:00,44.8,20.7,30.63,NNE,22,0.3,0.0,38,0.00,CLR,,0.00,WeatherDisplay:10.37,2013-04-21 23:42:00,
2013-04-21 19:47:00,44.4,20.4,30.63,NNE,22,0.0,0.0,38,0.00,CLR,,0.00,WeatherDisplay:10.37,2013-04-21 23:47:00,
2013-04-21 19:52:00,43.5,20.8,30.63,NNE,22,0.0,0.0,40,0.00,CLR,,0.00,WeatherDisplay:10.37,2013-04-21 23:52:00,
2013-04-21 19:57:00,43.0,20.9,30.64,NNE,22,0.0,0.0,41,0.00,CLR,,0.00,WeatherDisplay:10.37,2013-04-21 23:57:00,
2013-04-21 20:02:00,42.4,20.9,30.64,NNE,22,0.0,0.0,42,0.00,CLR,,0.00,WeatherDisplay:10.37,2013-04-22 00:02:00,
2013-04-21 20:07:00,41.9,21.0,30.64,NNE,22,0.0,0.0,43,0.00,CLR,,0.00,WeatherDisplay:10.37,2013-04-22 00:07:00,
2013-04-21 20:12:00,41.2,21.4,30.64,NNE,22,0.0,0.0,45,0.00,CLR,,0.00,WeatherDisplay:10.37,2013-04-22 00:12:00,
2013-04-21 20:17:00,40.8,22.1,30.66,NNE,22,0.0,0.0,47,0.00,CLR,,0.00,WeatherDisplay:10.37,2013-04-22 00:17:00,
2013-04-21 20:22:00,40.5,22.3,30.66,NNE,22,0.0,0.0,48,0.00,CLR,,0.00,WeatherDisplay:10.37,2013-04-22 00:22:00,
2013-04-21 20:27:00,39.9,21.8,30.66,NNE,22,0.0,0.0,48,0.00,CLR,,0.00,WeatherDisplay:10.37,2013-04-22 00:27:00,
2013-04-21 20:32:00,39.4,21.3,30.66,NNE,22,0.0,0.0,48,0.00,CLR,,0.00,WeatherDisplay:10.37,2013-04-22 00:32:00,
2013-04-21 20:37:00,39.0,21.9,30.66,NNE,22,0.0,0.0,50,0.00,CLR,,0.00,WeatherDisplay:10.37,2013-04-22 00:37:00,
2013-04-21 20:42:00,38.7,22.5,30.66,NNE,22,0.0,0.0,52,0.00,CLR,,0.00,WeatherDisplay:10.37,2013-04-22 00:42:00,
2013-04-21 20:47:00,38.1,22.5,30.66,NNE,22,0.0,0.0,53,0.00,CLR,,0.00,WeatherDisplay:10.37,2013-04-22 00:47:00,
2013-04-21 20:52:00,37.8,22.1,30.66,NNE,22,0.0,0.0,53,0.00,CLR,,0.00,WeatherDisplay:10.37,2013-04-22 00:52:00,
2013-04-21 20:57:00,37.6,22.4,30.67,NNE,22,0.0,0.0,54,0.00,CLR,,0.00,WeatherDisplay:10.37,2013-04-22 00:57:00,
2013-04-21 21:02:00,37.2,22.5,30.67,NNE,22,0.0,0.0,55,0.00,CLR,,0.00,WeatherDisplay:10.37,2013-04-22 01:02:00,
2013-04-21 21:07:00,36.9,22.2,30.67,NNE,22,0.0,0.0,55,0.00,CLR,,0.00,WeatherDisplay:10.37,2013-04-22 01:07:00,
2013-04-21 21:12:00,36.3,22.1,30.67,NNE,22,0.0,0.0,56,0.00,CLR,,0.00,WeatherDisplay:10.37,2013-04-22 01:12:00,
2013-04-21 21:17:00,36.1,22.4,30.68,SW,225,0.0,1.1,57,0.00,CLR,,0.00,WeatherDisplay:10.37,2013-04-22 01:17:00,
2013-04-21 21:22:00,35.8,22.0,30.68,WSW,248,0.1,0.0,57,0.00,CLR,,0.00,WeatherDisplay:10.37,2013-04-22 01:22:00,
2013-04-21 21:27:00,35.6,21.9,30.68,WSW,248,0.1,0.0,57,0.00,CLR,,0.00,WeatherDisplay:10.37,2013-04-22 01:27:00,
2013-04-21 21:32:00,35.1,21.8,30.68,WSW,248,0.0,0.0,58,0.00,CLR,,0.00,WeatherDisplay:10.37,2013-04-22 01:32:00,
2013-04-21 21:37:00,35.1,22.2,30.68,WSW,248,0.0,0.0,59,0.00,CLR,,0.00,WeatherDisplay:10.37,2013-04-22 01:37:00,
2013-04-21 21:42:00,34.7,22.2,30.68,SW,225,0.1,0.0,60,0.00,CLR,,0.00,WeatherDisplay:10.37,2013-04-22 01:42:00,
2013-04-21 21:47:00,34.7,22.6,30.68,WNW,292,0.1,0.0,61,0.00,CLR,,0.00,WeatherDisplay:10.37,2013-04-22 01:47:00,
2013-04-21 21:52:00,34.5,22.8,30.68,NW,315,0.0,0.0,62,0.00,CLR,,0.00,WeatherDisplay:10.37,2013-04-22 01:52:00,
2013-04-21 21:57:00,34.3,22.7,30.69,West,270,0.0,0.0,62,0.00,CLR,,0.00,WeatherDisplay:10.37,2013-04-22 01:57:00,
2013-04-21 22:02:00,34.2,22.9,30.69,NNW,338,0.0,0.0,63,0.00,CLR,,0.00,WeatherDisplay:10.37,2013-04-22 02:02:00,
2013-04-21 22:07:00,34.2,23.2,30.69,NW,315,0.0,0.0,64,0.00,CLR,,0.00,WeatherDisplay:10.37,2013-04-22 02:07:00,
2013-04-21 22:12:00,34.0,23.1,30.69,NW,315,0.0,0.0,64,0.00,CLR,,0.00,WeatherDisplay:10.37,2013-04-22 02:12:00,
2013-04-21 22:17:00,33.8,22.9,30.69,NW,315,0.0,0.0,64,0.00,CLR,,0.00,WeatherDisplay:10.37,2013-04-22 02:17:00,
2013-04-21 22:22:00,33.6,22.7,30.69,NW,315,0.0,0.0,64,0.00,CLR,,0.00,WeatherDisplay:10.37,2013-04-22 02:22:00,
2013-04-21 22:27:00,33.4,22.9,30.69,North,0,0.0,0.0,65,0.00,CLR,,0.00,WeatherDisplay:10.37,2013-04-22 02:27:00,
2013-04-21 22:32:00,34.0,24.2,30.69,SW,225,0.0,1.1,67,0.00,CLR,,0.00,WeatherDisplay:10.37,2013-04-22 02:32:00,
2013-04-21 22:37:00,33.6,24.2,30.70,SW,225,0.3,0.0,68,0.00,CLR,,0.00,WeatherDisplay:10.37,2013-04-22 02:37:00,
2013-04-21 22:42:00,33.4,24.0,30.70,WSW,248,0.2,0.0,68,0.00,CLR,,0.00,WeatherDisplay:10.37,2013-04-22 02:42:00,
2013-04-21 22:47:00,33.3,23.8,30.70,WNW,292,0.0,0.0,68,0.00,CLR,,0.00,WeatherDisplay:10.37,2013-04-22 02:47:00,
2013-04-21 22:52:00,33.3,24.2,30.70,WNW,292,0.0,0.0,69,0.00,CLR,,0.00,WeatherDisplay:10.37,2013-04-22 02:52:00,
2013-04-21 22:57:00,33.1,24.4,30.70,WNW,292,0.0,0.0,70,0.00,CLR,,0.00,WeatherDisplay:10.37,2013-04-22 02:57:00,
2013-04-21 23:02:00,33.1,24.4,30.70,SW,225,0.0,0.0,70,0.00,CLR,,0.00,WeatherDisplay:10.37,2013-04-22 03:02:00,
2013-04-21 23:07:00,32.9,24.5,30.70,SW,225,0.0,0.0,71,0.00,CLR,,0.00,WeatherDisplay:10.37,2013-04-22 03:07:00,
2013-04-21 23:12:00,32.7,24.3,30.70,SW,225,0.0,0.0,71,0.00,CLR,,0.00,WeatherDisplay:10.37,2013-04-22 03:12:00,
2013-04-21 23:17:00,32.7,24.7,30.64,SW,225,0.0,0.0,72,0.00,CLR,,0.00,WeatherDisplay:10.37,2013-04-22 03:17:00,
2013-04-21 23:22:00,32.5,24.2,30.64,SW,225,0.0,0.0,71,0.00,CLR,,0.00,WeatherDisplay:10.37,2013-04-22 03:22:00,
2013-04-21 23:27:00,32.5,24.2,30.64,SW,225,0.0,0.0,71,0.00,CLR,,0.00,WeatherDisplay:10.37,2013-04-22 03:27:00,
2013-04-21 23:32:00,32.5,24.5,30.64,NW,315,0.0,0.0,72,0.00,CLR,,0.00,WeatherDisplay:10.37,2013-04-22 03:32:00,
2013-04-21 23:37:00,32.2,24.5,30.63,NW,315,0.0,0.0,73,0.00,CLR,,0.00,WeatherDisplay:10.37,2013-04-22 03:37:00,
2013-04-21 23:42:00,32.0,24.3,30.63,NNW,338,0.0,0.0,73,0.00,CLR,,0.00,WeatherDisplay:10.37,2013-04-22 03:42:00,
2013-04-21 23:47:00,32.0,24.6,30.63,WNW,292,0.0,0.0,74,0.00,CLR,,0.00,WeatherDisplay:10.37,2013-04-22 03:47:00,
2013-04-21 23:52:00,32.2,24.8,30.63,NW,315,0.0,0.0,74,0.00,CLR,,0.00,WeatherDisplay:10.37,2013-04-22 03:52:00,
2013-04-21 23:57:00,31.8,24.5,30.63,NW,315,0.0,0.0,74,0.00,CLR,,0.00,WeatherDisplay:10.37,2013-04-22 03:57:00,